Location: Caltech
(34.1382°N, 118.1253°W)
Time: 18:46:08
(UTC-07:00)

Cosmos 1939 Rocket - Visible Passes

Search period start: 24 June 2016 00:00
Search period end: 04 July 2016 00:00
Orbit: 532 x 589 km, 97.6° (Epoch: 24 June)

Date Brightness Start Highest point End Pass type
(mag) Time Alt. Az. Time Alt. Az. Time Alt. Az.
24 Jun 4.6 22:01:19 14° SSW 22:04:06 28° W 22:07:31 10° NW visible
25 Jun 4.5 22:00:20 14° SSW 22:03:08 28° W 22:06:33 10° NW visible
26 Jun 4.5 21:59:22 14° SSW 22:02:10 29° W 22:05:37 10° NW visible
27 Jun 4.5 21:58:24 14° SSW 22:01:11 30° W 22:04:39 10° NW visible
28 Jun 4.4 21:57:25 14° SSW 22:00:13 30° W 22:03:43 10° NW visible
29 Jun 4.4 21:56:28 14° SSW 21:59:15 31° W 22:02:45 10° NW visible
30 Jun 4.3 21:55:29 14° SSW 21:58:17 32° W 22:01:48 10° NNW visible
01 Jul 4.3 21:54:31 15° SSW 21:57:18 33° W 22:00:51 10° NNW visible
02 Jul 4.2 21:53:34 15° SSW 21:56:20 34° W 21:59:53 10° NNW visible
03 Jul 4.2 21:52:35 15° SSW 21:55:21 35° W 21:58:56 10° NNW visible
